FENGYUN 1C DEB

Satellite information

Favourite Embed

Satellite Type and Status

DEBRISIN ORBIT

Key statistics

Satellite FENGYUN 1C DEB at a glance.

Uptime

9665

Days in orbit

Revolutions

≈ 14.3

Per day

Orbit

SSO

Sun Synchronous Orbit

Inclination

98.7

Latest

Satellite identification and parameters

Extended collection of information and parameters for FENGYUN 1C DEB.

Object identification

Identified? True

Debris? True

Object name: FENGYUN 1C DEB

International designator: 1999-025YV

Object number (NORAD): 30284

Object ID (CCSDS): 30284

Country: PEOPLES REPUBLIC OF CHINA (PRC)

Current information (Y/N): Y

RCS size: SMALL

Orbital parameters

Period: 100.826 minutes

Inclination: 98.7231 deg

SMA: 7175.88 km

Apoapsis: 824.296 km

Periapsis: 771.194 km

RAAN: 6.16 deg

Eccentricy: 0.00370001

Argument of periapsis: 247.8482 deg

Mean anomaly: 264.2441 deg

Mean motion: 14.28203273 rev/day

Mean motion (dot): 0.00005023 rev/day2

B* drag term: 0.0020187926 1/REarth

Two-line elements (TLE)

Creation date: Oct. 25, 2025, 3:11 a.m.

Reference frame: TEME

Reference center: EARTH

Epoch: Oct. 24, 2025, 4:37 p.m. UTC

TLE line 0: 0 FENGYUN 1C DEB

TLE line 1: 1 30284U 99025YV 25297.69243713 .00005023 00000-0 20188-2 0 9993

TLE line 2: 2 30284 98.7231 6.1600 0037000 247.8482 264.2441 14.28203273968151

Live tracking on map

Real-time ground track for satellite FENGYUN 1C DEB.

In-orbit conjunctions

A list of the most updated potential collisions computed for object FENGYUN 1C DEB.

Target Orbit TCA Probability of collision Miss distance Type
AAU CUBESAT SSO 2025-09-28 19:51:29 0.0001839982 843.0 (m) PAYLOAD
COSMOS 1275 DEB LEO 2025-08-29 08:50:17 0.0001364197 82.0 (m) DEBRIS
COSMOS 2251 DEB LEO 2024-11-14 07:46:49 0.0001779242 277.0 (m) DEBRIS
CZ-6A DEB LEO 2024-11-06 11:27:24 0.0001355833 128.0 (m) DEBRIS

Associated space launch

Chinese polar orbiting meteorological satellite

FENGYUN 1C DEB was lifted into orbit during the mission ‘Long March 4B | Feng Yun 1C’, on board a Long March 4B space rocket.

The launch took place on May 10, 1999, 1:33 a.m. from Launch Complex 7.

For more information about the launch, click the button.

Launch to space Long March 4B | Feng Yun 1C
Long March 4B | Feng Yun 1C

Agency: N/A

Status: Launch Successful

Launch date: May 10, 1999, 1:33 a.m. UTC

Rocket: Long March 4B

Launch pad: Launch Complex 7

Location: Taiyuan Satellite Launch Center, People's Republic of China

...

Latest news about this satellite

There are no fresh news available about this satellite. Check back as we update our databases every day.


Newsletter sign-up

Weekly statistics, charts and insights to help you stay on top of the space industry.